• In Belarus
  • List of Countries
  • For 7 days
  • Water Temperature
  • Satellite Maps
  • Weather Map
  • Weather Widgets
  • user-avatar
    Login

    Hourly Weather Tynda

    Today, 22 March, Friday

    Time Temperature Precipitation Wind Pressure Humidity
    00:00 -21°C° 0 mm 1 mps 706 mmHg 91%
    01:00 -21°C° 0 mm 1 mps 706 mmHg 90%
    02:00 -22°C° 0 mm 1 mps 706 mmHg 90%
    03:00 -23°C° 0 mm 1 mps 706 mmHg 90%
    04:00 -23°C° 0 mm 1 mps 706 mmHg 90%
    05:00 -24°C° 0 mm 1 mps 706 mmHg 90%
    06:00 -22°C° 0 mm 1 mps 706 mmHg 89%
    07:00 -20°C° 0 mm 1 mps 707 mmHg 89%
    08:00 -22°C° 0 mm 3 mps 707 mmHg 86%
    09:00 -19°C° 0 mm 3 mps 707 mmHg 81%
    10:00 -17°C° 0 mm 3 mps 707 mmHg 77%
    11:00 -15°C° 0 mm 3 mps 707 mmHg 73%
    12:00 -16°C° 0 mm 4 mps 707 mmHg 72%
    13:00 -15°C° 0 mm 4 mps 707 mmHg 72%
    14:00 -16°C° 0 mm 4 mps 707 mmHg 72%
    15:00 -15°C° 0 mm 3 mps 707 mmHg 75%
    16:00 -14°C° 0 mm 2 mps 707 mmHg 79%
    17:00 -15°C° 0 mm 2 mps 707 mmHg 82%
    18:00 -15°C° 0 mm 1 mps 707 mmHg 84%
    19:00 -17°C° 0 mm 1 mps 706 mmHg 86%
    20:00 -19°C° 0 mm 1 mps 706 mmHg 87%
    21:00 -20°C° 0 mm 1 mps 706 mmHg 88%
    22:00 -21°C° 0 mm 1 mps 705 mmHg 90%
    23:00 -21°C° 0 mm 1 mps 705 mmHg 91%

    Tomorrow, 23 March, Saturday

    Time Temperature Precipitation Wind Pressure Humidity
    00:00 -22°C° 0 mm 1 mps 705 mmHg 91%
    01:00 -22°C° 0 mm 1 mps 704 mmHg 92%
    02:00 -22°C° 0 mm 1 mps 704 mmHg 92%
    03:00 -22°C° 0 mm 1 mps 703 mmHg 92%
    04:00 -22°C° 0 mm 1 mps 703 mmHg 93%
    05:00 -22°C° 0 mm 0 mps 702 mmHg 93%
    06:00 -20°C° 0 mm 0 mps 702 mmHg 91%
    07:00 -18°C° 0 mm 0 mps 702 mmHg 89%
    08:00 -16°C° 0 mm 0 mps 701 mmHg 87%
    09:00 -13°C° 0 mm 1 mps 701 mmHg 84%
    10:00 -11°C° 0 mm 1 mps 700 mmHg 82%
    11:00 -8°C° 0 mm 1 mps 699 mmHg 79%
    12:00 -8°C° 0 mm 2 mps 698 mmHg 79%
    13:00 -7°C° 0 mm 2 mps 697 mmHg 79%
    14:00 -7°C° 0 mm 3 mps 697 mmHg 78%
    15:00 -8°C° 0.1 mm 3 mps 696 mmHg 81%
    16:00 -8°C° 0.1 mm 3 mps 695 mmHg 84%
    17:00 -8°C° 0.1 mm 3 mps 695 mmHg 87%
    18:00 -8°C° 0.2 mm 2 mps 694 mmHg 90%
    19:00 -9°C° 0.2 mm 2 mps 694 mmHg 92%
    20:00 -9°C° 0.2 mm 2 mps 694 mmHg 94%
    21:00 -8°C° 0.2 mm 1 mps 693 mmHg 95%
    22:00 -9°C° 0.2 mm 1 mps 693 mmHg 96%
    23:00 -9°C° 0.2 mm 1 mps 693 mmHg 96%

    Day after tomorrow, 24 March, Sunday

    Time Temperature Precipitation Wind Pressure Humidity
    00:00 -9°C° 0.1 mm 1 mps 692 mmHg 97%
    01:00 -10°C° 0.1 mm 0 mps 692 mmHg 97%
    02:00 -11°C° 0.1 mm 0 mps 692 mmHg 97%
    03:00 -11°C° 0.1 mm 0 mps 692 mmHg 97%
    04:00 -11°C° 0.1 mm 0 mps 692 mmHg 97%
    05:00 -10°C° 0.1 mm 0 mps 692 mmHg 97%
    06:00 -10°C° 0.1 mm 0 mps 692 mmHg 96%
    07:00 -9°C° 0.1 mm 1 mps 692 mmHg 95%
    08:00 -9°C° 0.1 mm 1 mps 692 mmHg 95%
    09:00 -9°C° 0.2 mm 2 mps 693 mmHg 93%
    10:00 -8°C° 0.2 mm 2 mps 693 mmHg 91%
    11:00 -8°C° 0.2 mm 2 mps 693 mmHg 89%
    12:00 -9°C° 0.3 mm 3 mps 693 mmHg 88%
    13:00 -10°C° 0.3 mm 4 mps 694 mmHg 87%
    14:00 -10°C° 0.3 mm 4 mps 694 mmHg 86%
    15:00 -11°C° 0.2 mm 4 mps 694 mmHg 85%
    16:00 -13°C° 0.2 mm 5 mps 695 mmHg 84%
    17:00 -14°C° 0.2 mm 5 mps 695 mmHg 83%
    18:00 -15°C° 0.1 mm 4 mps 695 mmHg 85%
    19:00 -16°C° 0.1 mm 4 mps 696 mmHg 87%
    20:00 -16°C° 0.1 mm 3 mps 696 mmHg 89%
    21:00 -17°C° 0.2 mm 3 mps 696 mmHg 90%
    22:00 -17°C° 0.2 mm 3 mps 697 mmHg 91%
    23:00 -17°C° 0.2 mm 3 mps 697 mmHg 93%

    25 March, Monday

    Time Temperature Precipitation Wind Pressure Humidity
    00:00 -18°C° 0.2 mm 3 mps 697 mmHg 92%
    01:00 -18°C° 0.2 mm 3 mps 697 mmHg 92%
    02:00 -18°C° 0.2 mm 3 mps 698 mmHg 92%
    03:00 -19°C° 0.1 mm 3 mps 698 mmHg 92%
    04:00 -19°C° 0.1 mm 3 mps 698 mmHg 92%
    05:00 -18°C° 0.1 mm 2 mps 699 mmHg 91%
    06:00 -19°C° 0.1 mm 3 mps 699 mmHg 90%
    07:00 -19°C° 0.1 mm 3 mps 700 mmHg 88%
    08:00 -18°C° 0.1 mm 3 mps 700 mmHg 86%
    09:00 -18°C° 0 mm 4 mps 700 mmHg 85%
    10:00 -17°C° 0 mm 4 mps 701 mmHg 84%
    11:00 -16°C° 0 mm 4 mps 701 mmHg 83%
    12:00 -15°C° 0 mm 4 mps 701 mmHg 82%
    13:00 -14°C° 0 mm 4 mps 701 mmHg 82%
    14:00 -12°C° 0 mm 4 mps 701 mmHg 81%
    15:00 -13°C° 0 mm 3 mps 702 mmHg 82%
    16:00 -13°C° 0 mm 3 mps 702 mmHg 83%
    17:00 -13°C° 0 mm 2 mps 702 mmHg 85%
    18:00 -15°C° 0 mm 2 mps 703 mmHg 86%
    19:00 -17°C° 0 mm 2 mps 703 mmHg 87%
    20:00 -19°C° 0 mm 2 mps 704 mmHg 89%
    21:00 -20°C° 0 mm 2 mps 704 mmHg 90%
    22:00 -21°C° 0 mm 2 mps 704 mmHg 90%
    23:00 -23°C° 0 mm 2 mps 705 mmHg 91%

    26 March, Tuesday

    Time Temperature Precipitation Wind Pressure Humidity
    00:00 -23°C° 0 mm 2 mps 705 mmHg 91%
    01:00 -24°C° 0 mm 2 mps 705 mmHg 91%
    02:00 -24°C° 0 mm 2 mps 706 mmHg 91%
    03:00 -25°C° 0 mm 2 mps 706 mmHg 92%
    04:00 -25°C° 0 mm 2 mps 706 mmHg 92%
    05:00 -26°C° 0 mm 2 mps 706 mmHg 92%
    06:00 -24°C° 0 mm 2 mps 707 mmHg 91%
    07:00 -21°C° 0 mm 2 mps 707 mmHg 90%
    08:00 -19°C° 0 mm 2 mps 708 mmHg 88%
    09:00 -17°C° 0 mm 2 mps 708 mmHg 85%
    10:00 -16°C° 0 mm 3 mps 708 mmHg 82%
    11:00 -13°C° 0 mm 3 mps 709 mmHg 79%
    12:00 -13°C° 0 mm 3 mps 708 mmHg 78%
    13:00 -12°C° 0 mm 4 mps 708 mmHg 76%
    14:00 -11°C° 0 mm 4 mps 708 mmHg 75%
    15:00 -12°C° 0.1 mm 3 mps 708 mmHg 77%
    16:00 -12°C° 0.1 mm 3 mps 708 mmHg 80%
    17:00 -12°C° 0.1 mm 3 mps 708 mmHg 82%
    18:00 -14°C° 0 mm 2 mps 708 mmHg 83%
    19:00 -16°C° 0 mm 2 mps 708 mmHg 85%
    20:00 -18°C° 0 mm 2 mps 708 mmHg 87%
    21:00 -19°C° 0 mm 2 mps 709 mmHg 88%
    22:00 -20°C° 0 mm 2 mps 709 mmHg 89%
    23:00 -21°C° 0 mm 2 mps 709 mmHg 90%

    27 March, Wednesday

    Time Temperature Precipitation Wind Pressure Humidity
    00:00 -21°C° 0 mm 2 mps 708 mmHg 91%
    01:00 -23°C° 0 mm 2 mps 708 mmHg 92%
    02:00 -24°C° 0 mm 2 mps 708 mmHg 92%
    03:00 -24°C° 0 mm 2 mps 708 mmHg 93%
    04:00 -25°C° 0 mm 2 mps 708 mmHg 93%
    05:00 -25°C° 0 mm 2 mps 708 mmHg 94%
    06:00 -23°C° 0 mm 2 mps 708 mmHg 92%
    07:00 -20°C° 0 mm 2 mps 708 mmHg 90%
    08:00 -18°C° 0 mm 2 mps 708 mmHg 88%
    09:00 -18°C° 0 mm 3 mps 708 mmHg 84%
    10:00 -17°C° 0 mm 4 mps 707 mmHg 80%
    11:00 -15°C° 0 mm 4 mps 707 mmHg 76%
    12:00 -14°C° 0.1 mm 4 mps 706 mmHg 76%
    13:00 -13°C° 0.1 mm 5 mps 706 mmHg 77%
    14:00 -12°C° 0.1 mm 5 mps 705 mmHg 77%
    15:00 -11°C° 0.1 mm 4 mps 705 mmHg 79%
    16:00 -11°C° 0.1 mm 4 mps 705 mmHg 81%
    17:00 -11°C° 0.1 mm 4 mps 704 mmHg 82%
    18:00 -12°C° 0.1 mm 4 mps 704 mmHg 85%
    19:00 -12°C° 0.1 mm 3 mps 704 mmHg 87%
    20:00 -13°C° 0.1 mm 3 mps 704 mmHg 89%
    21:00 -14°C° 0 mm 3 mps 704 mmHg 90%
    22:00 -14°C° 0 mm 2 mps 704 mmHg 92%
    23:00 -15°C° 0 mm 2 mps 703 mmHg 93%
    Show more